Location: Shepherdstown, WV
(39.4326°N, 77.8042°W)
Time: 05:25:40
(UTC-04:00)

SR - Pass Details

Date: 11 August 2021
Orbit: 581 x 874 km, 66.7° (Epoch: 24 September)

Event Time Altitude Azimuth Distance (km) Brightness Sun altitude
Rises 03:10:54 0° 165° (SSE) 3,440 - -29.2°
Reaches altitude 10° 03:14:09 10° 148° (SSE) 2,488 - -28.9°
Exits shadow 03:16:31 17° 125° (SE) 2,028 ? -28.6°
Maximum altitude 03:17:58 18° 106° (ESE) 1,929 ? -28.5°
Drops below altitude 10° 03:21:42 10° 64° (ENE) 2,414 ? -28.1°
Sets 03:24:46 0° 47° (NE) 3,301 ? -27.7°
